Time,TemperatureF,DewpointF,PressureIn,WindDirection,WindDirectionDegrees,WindSpeedMPH,WindSpeedGustMPH,Humidity,HourlyPrecipIn,Conditions,Clouds,dailyrainin,SoftwareType,DateUTC
2013-11-14 00:01:00,68.9,56.3,30.19,NW,319,5.0,13.0,64,0.00,,,0.00,meteohub,2013-11-14 05:01:00,
2013-11-14 00:02:00,69.1,56.8,30.19,ENE,59,3.0,13.0,65,0.00,,,0.00,meteohub,2013-11-14 05:02:00,
2013-11-14 00:03:00,69.1,56.8,30.19,NE,41,5.0,13.0,65,0.00,,,0.00,meteohub,2013-11-14 05:03:00,
2013-11-14 00:08:00,69.1,56.5,30.19,NE,45,8.0,12.0,64,0.00,,,0.00,meteohub,2013-11-14 05:08:00,
2013-11-14 00:13:00,69.1,56.8,30.19,NE,55,5.0,12.0,65,0.00,,,0.00,meteohub,2013-11-14 05:13:00,
2013-11-14 00:18:00,69.1,57.2,30.19,ENE,63,5.0,12.0,66,0.00,,,0.00,meteohub,2013-11-14 05:18:00,
2013-11-14 00:23:00,69.1,57.2,30.19,ESE,109,1.0,12.0,66,0.00,,,0.00,meteohub,2013-11-14 05:23:00,
2013-11-14 00:28:00,69.3,56.5,30.19,NNE,19,4.0,12.0,64,0.00,,,0.00,meteohub,2013-11-14 05:28:00,
2013-11-14 00:33:00,69.1,56.5,30.19,NE,45,3.0,13.0,64,0.00,,,0.00,meteohub,2013-11-14 05:33:00,
2013-11-14 00:38:00,69.1,56.8,30.19,East,101,2.0,13.0,65,0.00,,,0.00,meteohub,2013-11-14 05:38:00,
2013-11-14 00:43:00,69.1,56.8,30.19,ENE,69,7.0,13.0,65,0.00,,,0.00,meteohub,2013-11-14 05:43:00,
2013-11-14 00:48:00,69.3,57.4,30.19,NE,51,8.0,11.0,66,0.00,,,0.00,meteohub,2013-11-14 05:48:00,
2013-11-14 00:53:00,69.3,57.4,30.18,ENE,60,0.0,11.0,66,0.00,,,0.00,meteohub,2013-11-14 05:53:00,
2013-11-14 00:58:00,69.4,57.9,30.18,ENE,65,1.0,11.0,67,0.00,,,0.00,meteohub,2013-11-14 05:58:00,
2013-11-14 01:03:00,69.4,57.6,30.18,East,94,6.0,11.0,66,0.00,,,0.00,meteohub,2013-11-14 06:03:00,
2013-11-14 01:08:00,69.6,57.7,30.18,ENE,61,4.0,13.0,66,0.00,,,0.00,meteohub,2013-11-14 06:08:00,
2013-11-14 01:13:00,69.6,58.1,30.18,East,99,6.0,13.0,67,0.00,,,0.00,meteohub,2013-11-14 06:13:00,
2013-11-14 01:18:00,69.8,58.8,30.18,ENE,71,10.0,13.0,68,0.00,,,0.00,meteohub,2013-11-14 06:18:00,
2013-11-14 01:23:00,69.8,58.3,30.18,NNE,28,2.0,14.0,67,0.00,,,0.00,meteohub,2013-11-14 06:23:00,
2013-11-14 01:28:00,69.8,57.9,30.17,ESE,103,2.0,14.0,66,0.00,,,0.00,meteohub,2013-11-14 06:28:00,
2013-11-14 01:33:00,69.8,57.9,30.18,WNW,300,2.0,14.0,66,0.00,,,0.00,meteohub,2013-11-14 06:33:00,
2013-11-14 01:38:00,69.6,57.4,30.18,NE,34,1.0,13.0,65,0.00,,,0.00,meteohub,2013-11-14 06:38:00,
2013-11-14 01:43:00,69.6,57.4,30.18,North,9,8.0,13.0,65,0.00,,,0.00,meteohub,2013-11-14 06:43:00,
2013-11-14 01:48:00,69.4,55.9,30.18,ENE,69,4.0,13.0,62,0.00,,,0.00,meteohub,2013-11-14 06:48:00,
2013-11-14 01:53:00,69.4,55.9,30.18,ENE,74,2.0,13.0,62,0.00,,,0.00,meteohub,2013-11-14 06:53:00,
2013-11-14 01:58:00,69.4,55.9,30.17,NE,42,5.0,13.0,62,0.00,,,0.00,meteohub,2013-11-14 06:58:00,
2013-11-14 02:03:00,69.4,55.9,30.17,ENE,70,2.0,13.0,62,0.00,,,0.00,meteohub,2013-11-14 07:03:00,
2013-11-14 02:08:00,69.4,55.4,30.17,NE,42,2.0,12.0,61,0.00,,,0.00,meteohub,2013-11-14 07:08:00,
2013-11-14 02:13:00,69.4,55.9,30.17,ENE,78,9.0,9.0,62,0.00,,,0.00,meteohub,2013-11-14 07:13:00,
2013-11-14 02:18:00,69.4,56.3,30.17,NE,43,6.0,11.0,63,0.00,,,0.00,meteohub,2013-11-14 07:18:00,
2013-11-14 02:23:00,69.4,55.9,30.17,NE,53,3.0,15.0,62,0.00,,,0.00,meteohub,2013-11-14 07:23:00,
2013-11-14 02:28:00,69.4,56.3,30.17,NNE,30,4.0,15.0,63,0.00,,,0.00,meteohub,2013-11-14 07:28:00,
2013-11-14 02:33:00,69.3,56.1,30.17,SSE,156,3.0,15.0,63,0.00,,,0.00,meteohub,2013-11-14 07:33:00,
2013-11-14 02:38:00,69.3,56.1,30.17,NE,41,4.0,10.0,63,0.00,,,0.00,meteohub,2013-11-14 07:38:00,
2013-11-14 02:43:00,69.3,56.1,30.17,East,101,3.0,11.0,63,0.00,,,0.00,meteohub,2013-11-14 07:43:00,
2013-11-14 02:48:00,69.3,56.5,30.17,NE,49,1.0,11.0,64,0.00,,,0.00,meteohub,2013-11-14 07:48:00,
2013-11-14 02:53:00,69.3,56.1,30.17,East,94,5.0,11.0,63,0.00,,,0.00,meteohub,2013-11-14 07:53:00,
2013-11-14 02:58:00,69.1,55.6,30.17,ENE,62,1.0,10.0,62,0.00,,,0.00,meteohub,2013-11-14 07:58:00,
2013-11-14 03:03:00,69.1,55.6,30.17,NE,52,3.0,10.0,62,0.00,,,0.00,meteohub,2013-11-14 08:03:00,
2013-11-14 03:08:00,69.1,55.0,30.17,East,90,3.0,9.0,61,0.00,,,0.00,meteohub,2013-11-14 08:08:00,
2013-11-14 03:13:00,69.1,55.0,30.17,NE,37,0.0,12.0,61,0.00,,,0.00,meteohub,2013-11-14 08:13:00,
2013-11-14 03:18:00,69.1,55.0,30.17,ESE,109,1.0,12.0,61,0.00,,,0.00,meteohub,2013-11-14 08:18:00,
2013-11-14 03:23:00,69.3,55.8,30.17,East,85,3.0,12.0,62,0.00,,,0.00,meteohub,2013-11-14 08:23:00,
2013-11-14 03:28:00,69.3,55.8,30.17,ESE,105,8.0,9.0,62,0.00,,,0.00,meteohub,2013-11-14 08:28:00,
2013-11-14 03:33:00,69.4,56.3,30.17,SSE,160,0.0,9.0,63,0.00,,,0.00,meteohub,2013-11-14 08:33:00,
2013-11-14 03:38:00,69.3,56.1,30.17,NNE,16,6.0,9.0,63,0.00,,,0.00,meteohub,2013-11-14 08:38:00,
2013-11-14 03:43:00,69.3,56.1,30.17,NE,42,4.0,9.0,63,0.00,,,0.00,meteohub,2013-11-14 08:43:00,
2013-11-14 03:48:00,69.3,56.1,30.17,NE,40,3.0,11.0,63,0.00,,,0.00,meteohub,2013-11-14 08:48:00,
2013-11-14 03:53:00,69.3,56.5,30.17,North,355,1.0,11.0,64,0.00,,,0.00,meteohub,2013-11-14 08:53:00,
2013-11-14 03:58:00,69.4,56.7,30.16,East,92,7.0,11.0,64,0.00,,,0.00,meteohub,2013-11-14 08:58:00,
2013-11-14 04:03:00,69.4,56.7,30.16,ENE,59,4.0,11.0,64,0.00,,,0.00,meteohub,2013-11-14 09:03:00,
2013-11-14 04:08:00,69.4,57.6,30.17,NNE,24,0.0,11.0,66,0.00,,,0.00,meteohub,2013-11-14 09:08:00,
2013-11-14 04:13:00,69.6,57.4,30.16,ENE,76,8.0,11.0,65,0.00,,,0.00,meteohub,2013-11-14 09:13:00,
2013-11-14 04:18:00,69.6,57.4,30.16,NE,40,6.0,10.0,65,0.00,,,0.00,meteohub,2013-11-14 09:18:00,
2013-11-14 04:23:00,69.6,56.8,30.16,SE,127,1.0,11.0,64,0.00,,,0.00,meteohub,2013-11-14 09:23:00,
2013-11-14 04:28:00,69.6,57.4,30.16,NNE,15,1.0,11.0,65,0.00,,,0.00,meteohub,2013-11-14 09:28:00,
2013-11-14 04:33:00,69.6,57.4,30.16,East,89,1.0,11.0,65,0.00,,,0.00,meteohub,2013-11-14 09:33:00,
2013-11-14 04:38:00,69.6,57.4,30.16,ENE,77,2.0,11.0,65,0.00,,,0.00,meteohub,2013-11-14 09:38:00,
2013-11-14 04:43:00,69.6,56.8,30.17,NNE,28,1.0,11.0,64,0.00,,,0.00,meteohub,2013-11-14 09:43:00,
2013-11-14 04:48:00,69.6,56.8,30.16,East,88,6.0,11.0,64,0.00,,,0.00,meteohub,2013-11-14 09:48:00,
2013-11-14 04:53:00,70.0,57.7,30.16,SSW,208,1.0,9.0,65,0.00,,,0.00,meteohub,2013-11-14 09:53:00,
2013-11-14 04:58:00,70.0,57.2,30.16,NE,42,8.0,10.0,64,0.00,,,0.00,meteohub,2013-11-14 09:58:00,
2013-11-14 05:03:00,70.2,57.9,30.16,ESE,108,5.0,10.0,65,0.00,,,0.00,meteohub,2013-11-14 10:03:00,
2013-11-14 05:08:00,70.2,58.3,30.16,ESE,106,4.0,10.0,66,0.00,,,0.00,meteohub,2013-11-14 10:08:00,
2013-11-14 05:13:00,70.2,57.9,30.17,ENE,75,4.0,10.0,65,0.00,,,0.00,meteohub,2013-11-14 10:13:00,
2013-11-14 05:18:00,70.2,58.3,30.17,ENE,66,1.0,13.0,66,0.00,,,0.00,meteohub,2013-11-14 10:18:00,
2013-11-14 05:23:00,70.2,58.6,30.17,NNE,32,6.0,13.0,67,0.00,,,0.00,meteohub,2013-11-14 10:23:00,
2013-11-14 05:28:00,70.2,58.6,30.17,East,99,5.0,13.0,67,0.00,,,0.00,meteohub,2013-11-14 10:28:00,
2013-11-14 05:33:00,70.2,59.2,30.17,ENE,77,10.0,12.0,68,0.00,,,0.00,meteohub,2013-11-14 10:33:00,
2013-11-14 05:38:00,70.2,58.6,30.17,East,95,8.0,12.0,67,0.00,,,0.00,meteohub,2013-11-14 10:38:00,
2013-11-14 05:43:00,70.2,58.6,30.17,NE,56,2.0,12.0,67,0.00,,,0.00,meteohub,2013-11-14 10:43:00,
2013-11-14 05:48:00,70.2,58.6,30.17,NE,36,8.0,10.0,67,0.00,,,0.00,meteohub,2013-11-14 10:48:00,
2013-11-14 05:53:00,70.3,58.1,30.18,NE,53,2.0,11.0,65,0.00,,,0.00,meteohub,2013-11-14 10:53:00,
2013-11-14 05:58:00,70.2,58.3,30.19,NE,37,3.0,12.0,66,0.00,,,0.00,meteohub,2013-11-14 10:58:00,
2013-11-14 06:03:00,70.2,57.4,30.18,NE,40,2.0,12.0,64,0.00,,,0.00,meteohub,2013-11-14 11:03:00,
2013-11-14 06:08:00,70.2,58.3,30.18,NE,55,0.0,12.0,66,0.00,,,0.00,meteohub,2013-11-14 11:08:00,
2013-11-14 06:13:00,70.3,57.6,30.18,NNW,348,2.0,9.0,64,0.00,,,0.00,meteohub,2013-11-14 11:13:00,
2013-11-14 06:18:00,70.3,57.2,30.18,ESE,105,3.0,13.0,63,0.00,,,0.00,meteohub,2013-11-14 11:18:00,
2013-11-14 06:23:00,70.3,57.6,30.18,SSE,152,3.0,13.0,64,0.00,,,0.00,meteohub,2013-11-14 11:23:00,
2013-11-14 06:28:00,70.3,57.6,30.19,ENE,75,0.0,13.0,64,0.00,,,0.00,meteohub,2013-11-14 11:28:00,
2013-11-14 06:33:00,70.5,58.6,30.19,NNW,345,4.0,10.0,66,0.00,,,0.00,meteohub,2013-11-14 11:33:00,
2013-11-14 06:38:00,70.5,57.4,30.19,NE,55,1.0,10.0,63,0.00,,,0.00,meteohub,2013-11-14 11:38:00,
2013-11-14 06:43:00,70.5,57.4,30.19,North,9,5.0,10.0,63,0.00,,,0.00,meteohub,2013-11-14 11:43:00,
2013-11-14 06:48:00,70.5,57.7,30.19,East,85,5.0,9.0,64,0.00,,,0.00,meteohub,2013-11-14 11:48:00,
2013-11-14 06:53:00,70.5,57.7,30.19,ENE,59,1.0,9.0,64,0.00,,,0.00,meteohub,2013-11-14 11:53:00,
2013-11-14 06:58:00,70.5,57.7,30.19,ENE,72,7.0,9.0,64,0.00,,,0.00,meteohub,2013-11-14 11:58:00,
2013-11-14 07:03:00,70.5,57.4,30.19,SE,129,4.0,11.0,63,0.00,,,0.00,meteohub,2013-11-14 12:03:00,
2013-11-14 07:08:00,70.7,57.6,30.19,East,98,8.0,11.0,63,0.00,,,0.00,meteohub,2013-11-14 12:08:00,
2013-11-14 07:13:00,70.9,57.7,30.19,SE,128,2.0,11.0,63,0.00,,,0.00,meteohub,2013-11-14 12:13:00,
2013-11-14 07:18:00,70.9,57.7,30.19,North,9,0.0,13.0,63,0.00,,,0.00,meteohub,2013-11-14 12:18:00,
2013-11-14 07:23:00,71.1,58.3,30.20,East,90,2.0,13.0,64,0.00,,,0.00,meteohub,2013-11-14 12:23:00,
2013-11-14 07:28:00,71.1,57.7,30.19,NE,52,1.0,13.0,63,0.00,,,0.00,meteohub,2013-11-14 12:28:00,
2013-11-14 07:33:00,71.2,57.9,30.21,NNE,29,1.0,9.0,63,0.00,,,0.00,meteohub,2013-11-14 12:33:00,
2013-11-14 07:38:00,71.2,57.9,30.21,NE,54,0.0,9.0,63,0.00,,,0.00,meteohub,2013-11-14 12:38:00,
2013-11-14 07:43:00,71.6,58.3,30.21,ESE,108,2.0,9.0,63,0.00,,,0.00,meteohub,2013-11-14 12:43:00,
2013-11-14 07:48:00,71.8,58.1,30.21,WNW,299,3.0,13.0,62,0.00,,,0.00,meteohub,2013-11-14 12:48:00,
2013-11-14 07:53:00,71.8,58.1,30.22,NE,53,1.0,13.0,62,0.00,,,0.00,meteohub,2013-11-14 12:53:00,
2013-11-14 07:58:00,71.4,58.1,30.22,NE,53,9.0,13.0,63,0.00,,,0.00,meteohub,2013-11-14 12:58:00,
2013-11-14 08:03:00,71.4,58.1,30.22,ENE,67,3.0,12.0,63,0.00,,,0.00,meteohub,2013-11-14 13:03:00,
2013-11-14 08:08:00,71.2,57.9,30.22,NNE,21,7.0,12.0,63,0.00,,,0.00,meteohub,2013-11-14 13:08:00,
2013-11-14 08:13:00,71.2,57.6,30.22,ENE,61,5.0,12.0,62,0.00,,,0.00,meteohub,2013-11-14 13:13:00,
2013-11-14 08:18:00,71.4,57.7,30.22,East,90,0.0,11.0,62,0.00,,,0.00,meteohub,2013-11-14 13:18:00,
2013-11-14 08:23:00,71.4,57.2,30.22,ENE,67,1.0,11.0,61,0.00,,,0.00,meteohub,2013-11-14 13:23:00,
2013-11-14 08:28:00,71.8,57.6,30.22,South,178,7.0,11.0,61,0.00,,,0.00,meteohub,2013-11-14 13:28:00,
2013-11-14 08:33:00,72.1,57.0,30.22,NNE,14,3.0,11.0,59,0.00,,,0.00,meteohub,2013-11-14 13:33:00,
2013-11-14 08:38:00,73.0,56.8,30.22,East,101,2.0,10.0,57,0.00,,,0.00,meteohub,2013-11-14 13:38:00,
2013-11-14 08:43:00,73.2,56.7,30.23,East,101,6.0,10.0,56,0.00,,,0.00,meteohub,2013-11-14 13:43:00,
2013-11-14 08:48:00,73.2,56.1,30.23,SW,218,4.0,10.0,55,0.00,,,0.00,meteohub,2013-11-14 13:48:00,
2013-11-14 08:53:00,73.0,55.9,30.23,East,83,2.0,11.0,55,0.00,,,0.00,meteohub,2013-11-14 13:53:00,
2013-11-14 08:58:00,73.2,57.0,30.23,East,96,3.0,11.0,57,0.00,,,0.00,meteohub,2013-11-14 13:58:00,
2013-11-14 09:04:00,73.2,56.1,30.24,ESE,123,3.0,11.0,55,0.00,,,0.00,meteohub,2013-11-14 14:04:00,
2013-11-14 09:09:00,73.6,57.4,30.24,SW,231,3.0,12.0,57,0.00,,,0.00,meteohub,2013-11-14 14:09:00,
2013-11-14 09:14:00,73.8,57.6,30.24,East,97,0.0,12.0,57,0.00,,,0.00,meteohub,2013-11-14 14:14:00,
2013-11-14 09:19:00,74.1,57.4,30.24,East,94,1.0,12.0,56,0.00,,,0.00,meteohub,2013-11-14 14:19:00,
2013-11-14 09:24:00,74.5,58.3,30.24,ESE,123,0.0,10.0,57,0.00,,,0.00,meteohub,2013-11-14 14:24:00,
2013-11-14 09:29:00,74.1,58.5,30.24,ESE,102,1.0,10.0,58,0.00,,,0.00,meteohub,2013-11-14 14:29:00,
2013-11-14 09:34:00,74.3,58.1,30.24,SE,144,2.0,9.0,57,0.00,,,0.00,meteohub,2013-11-14 14:34:00,
2013-11-14 09:39:00,74.8,58.1,30.24,ENE,73,3.0,10.0,56,0.00,,,0.00,meteohub,2013-11-14 14:39:00,
2013-11-14 09:44:00,74.7,58.8,30.24,NNE,33,4.0,10.0,58,0.00,,,0.00,meteohub,2013-11-14 14:44:00,
2013-11-14 09:47:00,74.3,58.6,30.24,ESE,105,3.0,10.0,58,0.00,,,0.00,meteohub,2013-11-14 14:47:00,
2013-11-14 09:52:00,74.3,58.6,30.24,North,5,2.0,10.0,58,0.00,,,0.00,meteohub,2013-11-14 14:52:00,
2013-11-14 09:57:00,73.9,59.2,30.24,East,86,7.0,9.0,60,0.00,,,0.00,meteohub,2013-11-14 14:57:00,
2013-11-14 10:02:00,73.8,58.5,30.24,NNE,17,3.0,11.0,59,0.00,,,0.00,meteohub,2013-11-14 15:02:00,
2013-11-14 10:07:00,73.8,59.0,30.24,ENE,75,2.0,11.0,60,0.00,,,0.00,meteohub,2013-11-14 15:07:00,
2013-11-14 10:12:00,74.8,60.4,30.24,SE,142,1.0,11.0,61,0.00,,,0.00,meteohub,2013-11-14 15:12:00,
2013-11-14 10:17:00,75.7,60.4,30.24,SE,140,4.0,10.0,59,0.00,,,0.00,meteohub,2013-11-14 15:17:00,
2013-11-14 10:22:00,75.4,60.1,30.24,NE,43,2.0,10.0,59,0.00,,,0.00,meteohub,2013-11-14 15:22:00,
2013-11-14 10:27:00,75.6,60.6,30.25,ESE,120,2.0,10.0,60,0.00,,,0.00,meteohub,2013-11-14 15:27:00,
2013-11-14 10:32:00,76.5,60.6,30.24,East,92,1.0,10.0,58,0.00,,,0.00,meteohub,2013-11-14 15:32:00,
2013-11-14 10:37:00,77.0,59.5,30.24,ENE,69,4.0,11.0,55,0.00,,,0.00,meteohub,2013-11-14 15:37:00,
2013-11-14 10:42:00,76.5,60.1,30.25,East,92,1.0,12.0,57,0.00,,,0.00,meteohub,2013-11-14 15:42:00,
2013-11-14 10:47:00,76.3,61.0,30.24,East,89,0.0,12.0,59,0.00,,,0.00,meteohub,2013-11-14 15:47:00,
2013-11-14 10:52:00,76.5,59.5,30.24,NE,54,2.0,12.0,56,0.00,,,0.00,meteohub,2013-11-14 15:52:00,
2013-11-14 10:57:00,76.5,59.5,30.23,ESE,122,0.0,10.0,56,0.00,,,0.00,meteohub,2013-11-14 15:57:00,
2013-11-14 11:02:00,76.1,59.2,30.23,ESE,123,3.0,10.0,56,0.00,,,0.00,meteohub,2013-11-14 16:02:00,
2013-11-14 11:07:00,75.7,59.4,30.23,NE,38,0.0,10.0,57,0.00,,,0.00,meteohub,2013-11-14 16:07:00,
2013-11-14 11:12:00,75.7,59.4,30.23,ENE,71,0.0,9.0,57,0.00,,,0.00,meteohub,2013-11-14 16:12:00,
2013-11-14 11:17:00,75.7,59.9,30.22,East,96,0.0,9.0,58,0.00,,,0.00,meteohub,2013-11-14 16:17:00,
2013-11-14 11:22:00,75.9,59.5,30.22,NE,49,4.0,9.0,57,0.00,,,0.00,meteohub,2013-11-14 16:22:00,
2013-11-14 11:27:00,75.9,60.1,30.22,NE,45,1.0,10.0,58,0.00,,,0.00,meteohub,2013-11-14 16:27:00,
2013-11-14 11:32:00,75.9,60.1,30.22,ENE,59,0.0,10.0,58,0.00,,,0.00,meteohub,2013-11-14 16:32:00,
2013-11-14 11:37:00,75.9,60.1,30.21,East,86,5.0,10.0,58,0.00,,,0.00,meteohub,2013-11-14 16:37:00,
2013-11-14 11:42:00,75.6,59.2,30.22,East,80,1.0,8.0,57,0.00,,,0.00,meteohub,2013-11-14 16:42:00,
2013-11-14 11:47:00,75.7,59.9,30.22,NE,50,4.0,8.0,58,0.00,,,0.00,meteohub,2013-11-14 16:47:00,
2013-11-14 11:52:00,75.9,60.1,30.22,SE,142,0.0,10.0,58,0.00,,,0.00,meteohub,2013-11-14 16:52:00,
2013-11-14 11:57:00,76.1,59.7,30.21,ENE,63,1.0,10.0,57,0.00,,,0.00,meteohub,2013-11-14 16:57:00,
2013-11-14 12:02:00,75.9,60.1,30.22,West,261,0.0,13.0,58,0.00,,,0.00,meteohub,2013-11-14 17:02:00,
2013-11-14 12:07:00,75.9,60.6,30.21,NNE,23,3.0,13.0,59,0.00,,,0.00,meteohub,2013-11-14 17:07:00,
2013-11-14 12:12:00,75.9,60.6,30.21,NNW,327,2.0,13.0,59,0.00,,,0.00,meteohub,2013-11-14 17:12:00,
2013-11-14 12:17:00,75.9,59.5,30.20,NNE,32,1.0,9.0,57,0.00,,,0.00,meteohub,2013-11-14 17:17:00,
2013-11-14 12:22:00,76.5,60.1,30.20,WSW,245,1.0,10.0,57,0.00,,,0.00,meteohub,2013-11-14 17:22:00,
2013-11-14 12:27:00,76.5,60.1,30.20,West,270,3.0,10.0,57,0.00,,,0.00,meteohub,2013-11-14 17:27:00,
2013-11-14 12:32:00,76.1,59.7,30.19,NNE,31,7.0,13.0,57,0.00,,,0.00,meteohub,2013-11-14 17:32:00,
2013-11-14 12:37:00,75.9,60.6,30.19,NNE,31,2.0,13.0,59,0.00,,,0.00,meteohub,2013-11-14 17:37:00,
2013-11-14 12:42:00,75.7,60.4,30.19,East,88,7.0,13.0,59,0.00,,,0.00,meteohub,2013-11-14 17:42:00,
2013-11-14 12:47:00,75.9,61.0,30.19,ENE,66,0.0,12.0,60,0.00,,,0.00,meteohub,2013-11-14 17:47:00,
2013-11-14 12:53:00,76.3,61.3,30.18,East,92,1.0,10.0,60,0.00,,,0.00,meteohub,2013-11-14 17:53:00,
2013-11-14 12:58:00,76.3,61.3,30.18,East,100,2.0,10.0,60,0.00,,,0.00,meteohub,2013-11-14 17:58:00,
2013-11-14 13:03:00,75.9,61.0,30.18,ESE,119,4.0,10.0,60,0.00,,,0.00,meteohub,2013-11-14 18:03:00,
2013-11-14 13:08:00,76.1,61.7,30.18,East,96,0.0,11.0,61,0.00,,,0.00,meteohub,2013-11-14 18:08:00,
2013-11-14 13:13:00,76.3,61.3,30.17,NNE,16,3.0,11.0,60,0.00,,,0.00,meteohub,2013-11-14 18:13:00,
2013-11-14 13:18:00,76.3,61.0,30.17,NE,50,3.0,11.0,59,0.00,,,0.00,meteohub,2013-11-14 18:18:00,
2013-11-14 13:23:00,76.3,60.4,30.17,NNE,31,2.0,9.0,58,0.00,,,0.00,meteohub,2013-11-14 18:23:00,
2013-11-14 13:28:00,76.6,60.8,30.17,ESE,104,2.0,11.0,58,0.00,,,0.00,meteohub,2013-11-14 18:28:00,
2013-11-14 13:33:00,77.0,60.6,30.17,ENE,76,3.0,11.0,57,0.00,,,0.00,meteohub,2013-11-14 18:33:00,
2013-11-14 13:38:00,76.5,60.1,30.17,NE,48,5.0,11.0,57,0.00,,,0.00,meteohub,2013-11-14 18:38:00,
2013-11-14 13:43:00,75.9,60.1,30.17,SSE,148,3.0,9.0,58,0.00,,,0.00,meteohub,2013-11-14 18:43:00,
2013-11-14 13:48:00,75.4,60.1,30.17,NNE,22,1.0,9.0,59,0.00,,,0.00,meteohub,2013-11-14 18:48:00,
2013-11-14 13:53:00,75.6,60.3,30.17,North,5,3.0,8.0,59,0.00,,,0.00,meteohub,2013-11-14 18:53:00,
2013-11-14 13:58:00,75.0,58.8,30.17,ESE,118,7.0,10.0,57,0.00,,,0.00,meteohub,2013-11-14 18:58:00,
2013-11-14 14:03:00,74.7,58.8,30.16,ENE,63,3.0,10.0,58,0.00,,,0.00,meteohub,2013-11-14 19:03:00,
2013-11-14 14:08:00,74.5,58.8,30.16,NNE,31,4.0,10.0,58,0.00,,,0.00,meteohub,2013-11-14 19:08:00,
2013-11-14 14:13:00,74.7,58.8,30.16,NE,56,3.0,10.0,58,0.00,,,0.00,meteohub,2013-11-14 19:13:00,
2013-11-14 14:18:00,74.5,58.3,30.16,SE,139,5.0,10.0,57,0.00,,,0.00,meteohub,2013-11-14 19:18:00,
2013-11-14 14:23:00,74.5,58.3,30.16,North,11,2.0,10.0,57,0.00,,,0.00,meteohub,2013-11-14 19:23:00,
2013-11-14 14:28:00,74.3,58.1,30.16,East,84,2.0,10.0,57,0.00,,,0.00,meteohub,2013-11-14 19:28:00,
2013-11-14 14:33:00,74.3,58.6,30.16,East,84,2.0,9.0,58,0.00,,,0.00,meteohub,2013-11-14 19:33:00,
2013-11-14 14:38:00,74.5,58.8,30.16,NNE,26,1.0,8.0,58,0.00,,,0.00,meteohub,2013-11-14 19:38:00,
2013-11-14 14:43:00,74.5,58.3,30.16,NW,321,0.0,9.0,57,0.00,,,0.00,meteohub,2013-11-14 19:43:00,
2013-11-14 14:48:00,74.3,58.1,30.16,ESE,112,5.0,9.0,57,0.00,,,0.00,meteohub,2013-11-14 19:48:00,
2013-11-14 14:53:00,73.9,58.3,30.16,SE,124,2.0,9.0,58,0.00,,,0.00,meteohub,2013-11-14 19:53:00,
2013-11-14 14:58:00,73.9,58.3,30.16,North,11,4.0,8.0,58,0.00,,,0.00,meteohub,2013-11-14 19:58:00,
2013-11-14 15:03:00,73.9,58.3,30.15,NE,34,6.0,8.0,58,0.00,,,0.00,meteohub,2013-11-14 20:03:00,
2013-11-14 15:08:00,73.9,58.3,30.16,ENE,67,0.0,8.0,58,0.00,,,0.00,meteohub,2013-11-14 20:08:00,
2013-11-14 15:13:00,73.9,58.6,30.16,NNE,26,4.0,8.0,59,0.00,,,0.00,meteohub,2013-11-14 20:13:00,
2013-11-14 15:18:00,73.9,59.2,30.16,ESE,103,4.0,8.0,60,0.00,,,0.00,meteohub,2013-11-14 20:18:00,
2013-11-14 15:23:00,74.1,59.4,30.16,ESE,107,4.0,8.0,60,0.00,,,0.00,meteohub,2013-11-14 20:23:00,
2013-11-14 15:28:00,73.9,60.1,30.16,South,173,1.0,10.0,62,0.00,,,0.00,meteohub,2013-11-14 20:28:00,
2013-11-14 15:33:00,73.8,59.5,30.16,ENE,76,5.0,10.0,61,0.00,,,0.00,meteohub,2013-11-14 20:33:00,
2013-11-14 15:38:00,73.4,60.1,30.16,North,9,3.0,10.0,63,0.00,,,0.00,meteohub,2013-11-14 20:38:00,
2013-11-14 15:43:00,73.2,60.3,30.16,NE,34,1.0,9.0,64,0.00,,,0.00,meteohub,2013-11-14 20:43:00,
2013-11-14 15:48:00,73.0,59.7,30.16,West,269,0.0,10.0,63,0.00,,,0.00,meteohub,2013-11-14 20:48:00,
2013-11-14 15:53:00,73.0,59.7,30.16,East,97,2.0,10.0,63,0.00,,,0.00,meteohub,2013-11-14 20:53:00,
2013-11-14 15:58:00,72.9,59.5,30.16,ENE,73,1.0,10.0,63,0.00,,,0.00,meteohub,2013-11-14 20:58:00,
2013-11-14 16:03:00,72.9,59.0,30.16,ESE,111,0.0,10.0,62,0.00,,,0.00,meteohub,2013-11-14 21:03:00,
2013-11-14 16:08:00,73.0,59.7,30.16,NE,34,4.0,10.0,63,0.00,,,0.00,meteohub,2013-11-14 21:08:00,
2013-11-14 16:13:00,73.0,59.2,30.16,ESE,103,3.0,10.0,62,0.00,,,0.00,meteohub,2013-11-14 21:13:00,
2013-11-14 16:18:00,73.0,59.7,30.16,East,85,2.0,11.0,63,0.00,,,0.00,meteohub,2013-11-14 21:18:00,
2013-11-14 16:23:00,72.9,59.9,30.16,East,88,2.0,11.0,64,0.00,,,0.00,meteohub,2013-11-14 21:23:00,
2013-11-14 16:28:00,72.9,59.5,30.16,East,98,1.0,11.0,63,0.00,,,0.00,meteohub,2013-11-14 21:28:00,
2013-11-14 16:34:00,72.7,58.5,30.16,East,84,3.0,9.0,61,0.00,,,0.00,meteohub,2013-11-14 21:34:00,
2013-11-14 16:39:00,72.7,58.5,30.16,NNE,32,1.0,8.0,61,0.00,,,0.00,meteohub,2013-11-14 21:39:00,
2013-11-14 16:44:00,72.7,58.8,30.16,ENE,61,1.0,9.0,62,0.00,,,0.00,meteohub,2013-11-14 21:44:00,
2013-11-14 16:49:00,72.7,58.5,30.16,ESE,112,2.0,9.0,61,0.00,,,0.00,meteohub,2013-11-14 21:49:00,
2013-11-14 16:54:00,72.7,57.9,30.16,NE,38,1.0,9.0,60,0.00,,,0.00,meteohub,2013-11-14 21:54:00,
2013-11-14 16:59:00,72.7,57.6,30.16,NNE,22,4.0,8.0,59,0.00,,,0.00,meteohub,2013-11-14 21:59:00,
2013-11-14 17:04:00,72.7,58.5,30.16,ENE,77,0.0,8.0,61,0.00,,,0.00,meteohub,2013-11-14 22:04:00,
2013-11-14 17:09:00,72.7,58.5,30.16,East,88,6.0,9.0,61,0.00,,,0.00,meteohub,2013-11-14 22:09:00,
2013-11-14 17:14:00,72.5,58.3,30.16,NE,40,4.0,10.0,61,0.00,,,0.00,meteohub,2013-11-14 22:14:00,
2013-11-14 17:19:00,72.3,58.6,30.16,ESE,107,1.0,10.0,62,0.00,,,0.00,meteohub,2013-11-14 22:19:00,
2013-11-14 17:24:00,72.3,58.1,30.16,ESE,105,3.0,10.0,61,0.00,,,0.00,meteohub,2013-11-14 22:24:00,
2013-11-14 17:29:00,72.3,59.5,30.17,ESE,111,2.0,9.0,64,0.00,,,0.00,meteohub,2013-11-14 22:29:00,
2013-11-14 17:34:00,72.3,59.9,30.17,NE,36,0.0,9.0,65,0.00,,,0.00,meteohub,2013-11-14 22:34:00,
2013-11-14 17:39:00,72.1,59.4,30.17,ENE,71,2.0,9.0,64,0.00,,,0.00,meteohub,2013-11-14 22:39:00,
2013-11-14 17:44:00,72.1,59.4,30.17,ENE,76,1.0,9.0,64,0.00,,,0.00,meteohub,2013-11-14 22:44:00,
2013-11-14 17:49:00,72.1,60.6,30.17,ENE,76,0.0,9.0,67,0.00,,,0.00,meteohub,2013-11-14 22:49:00,
2013-11-14 17:54:00,72.1,59.4,30.17,ENE,76,3.0,7.0,64,0.00,,,0.00,meteohub,2013-11-14 22:54:00,
2013-11-14 17:59:00,72.1,59.7,30.17,SE,127,2.0,7.0,65,0.00,,,0.00,meteohub,2013-11-14 22:59:00,
2013-11-14 18:04:00,72.1,59.7,30.17,NE,44,0.0,7.0,65,0.00,,,0.00,meteohub,2013-11-14 23:04:00,
2013-11-14 18:09:00,72.1,59.7,30.17,ESE,112,2.0,10.0,65,0.00,,,0.00,meteohub,2013-11-14 23:09:00,
2013-11-14 18:14:00,72.1,59.4,30.17,SE,142,1.0,10.0,64,0.00,,,0.00,meteohub,2013-11-14 23:14:00,
2013-11-14 18:19:00,72.0,58.6,30.17,East,92,3.0,10.0,63,0.00,,,0.00,meteohub,2013-11-14 23:19:00,
2013-11-14 18:24:00,72.0,58.3,30.17,SE,134,3.0,8.0,62,0.00,,,0.00,meteohub,2013-11-14 23:24:00,
2013-11-14 18:29:00,72.0,59.2,30.17,ENE,63,4.0,8.0,64,0.00,,,0.00,meteohub,2013-11-14 23:29:00,
2013-11-14 18:34:00,72.0,58.6,30.18,East,96,2.0,8.0,63,0.00,,,0.00,meteohub,2013-11-14 23:34:00,
2013-11-14 18:39:00,72.0,58.3,30.18,East,79,3.0,8.0,62,0.00,,,0.00,meteohub,2013-11-14 23:39:00,
2013-11-14 18:44:00,72.1,58.5,30.18,East,90,2.0,8.0,62,0.00,,,0.00,meteohub,2013-11-14 23:44:00,
2013-11-14 18:49:00,72.1,58.8,30.18,ESE,114,2.0,8.0,63,0.00,,,0.00,meteohub,2013-11-14 23:49:00,
2013-11-14 18:54:00,72.1,58.8,30.18,NE,36,6.0,8.0,63,0.00,,,0.00,meteohub,2013-11-14 23:54:00,
2013-11-14 18:59:00,72.3,58.6,30.18,SSE,154,3.0,8.0,62,0.00,,,0.00,meteohub,2013-11-14 23:59:00,
2013-11-14 19:04:00,72.1,58.5,30.18,North,9,1.0,9.0,62,0.00,,,0.00,meteohub,2013-11-15 00:04:00,
2013-11-14 19:09:00,72.3,58.1,30.18,NE,34,5.0,9.0,61,0.00,,,0.00,meteohub,2013-11-15 00:09:00,
2013-11-14 19:14:00,72.1,57.6,30.17,NNE,32,0.0,9.0,60,0.00,,,0.00,meteohub,2013-11-15 00:14:00,
2013-11-14 19:19:00,72.1,57.9,30.17,NNE,30,8.0,9.0,61,0.00,,,0.00,meteohub,2013-11-15 00:19:00,
2013-11-14 19:24:00,72.1,57.6,30.17,NE,50,2.0,9.0,60,0.00,,,0.00,meteohub,2013-11-15 00:24:00,
2013-11-14 19:29:00,72.1,58.5,30.17,ESE,105,4.0,10.0,62,0.00,,,0.00,meteohub,2013-11-15 00:29:00,
2013-11-14 19:34:00,72.1,58.5,30.17,East,79,3.0,13.0,62,0.00,,,0.00,meteohub,2013-11-15 00:34:00,
2013-11-14 19:39:00,72.1,57.9,30.17,ENE,63,0.0,13.0,61,0.00,,,0.00,meteohub,2013-11-15 00:39:00,
2013-11-14 19:44:00,72.0,58.3,30.18,East,86,0.0,13.0,62,0.00,,,0.00,meteohub,2013-11-15 00:44:00,
2013-11-14 19:49:00,72.0,57.7,30.17,NNE,17,4.0,9.0,61,0.00,,,0.00,meteohub,2013-11-15 00:49:00,
2013-11-14 19:54:00,72.1,58.8,30.18,North,10,6.0,12.0,63,0.00,,,0.00,meteohub,2013-11-15 00:54:00,
2013-11-14 19:59:00,72.1,57.9,30.18,ESE,117,2.0,12.0,61,0.00,,,0.00,meteohub,2013-11-15 00:59:00,
2013-11-14 20:04:00,72.1,57.6,30.18,ESE,112,3.0,12.0,60,0.00,,,0.00,meteohub,2013-11-15 01:04:00,
2013-11-14 20:09:00,72.3,58.1,30.18,NE,42,3.0,8.0,61,0.00,,,0.00,meteohub,2013-11-15 01:09:00,
2013-11-14 20:14:00,72.3,58.1,30.18,SE,136,1.0,8.0,61,0.00,,,0.00,meteohub,2013-11-15 01:14:00,
2013-11-14 20:19:00,72.3,57.7,30.18,SE,146,3.0,8.0,60,0.00,,,0.00,meteohub,2013-11-15 01:19:00,
2013-11-14 20:24:00,72.3,58.6,30.17,South,173,3.0,10.0,62,0.00,,,0.00,meteohub,2013-11-15 01:24:00,
2013-11-14 20:29:00,72.3,59.0,30.17,East,86,0.0,10.0,63,0.00,,,0.00,meteohub,2013-11-15 01:29:00,
2013-11-14 20:34:00,72.3,58.1,30.17,NNE,22,1.0,10.0,61,0.00,,,0.00,meteohub,2013-11-15 01:34:00,
2013-11-14 20:39:00,72.1,57.9,30.18,SE,136,4.0,8.0,61,0.00,,,0.00,meteohub,2013-11-15 01:39:00,
2013-11-14 20:44:00,72.1,57.6,30.17,ESE,110,7.0,8.0,60,0.00,,,0.00,meteohub,2013-11-15 01:44:00,
2013-11-14 20:49:00,72.3,58.6,30.18,East,85,2.0,9.0,62,0.00,,,0.00,meteohub,2013-11-15 01:49:00,
2013-11-14 20:54:00,72.3,59.0,30.18,West,266,5.0,9.0,63,0.00,,,0.00,meteohub,2013-11-15 01:54:00,
2013-11-14 20:59:00,72.3,59.0,30.18,SSW,202,0.0,11.0,63,0.00,,,0.00,meteohub,2013-11-15 01:59:00,
2013-11-14 21:04:00,72.3,59.5,30.18,NE,51,4.0,11.0,64,0.00,,,0.00,meteohub,2013-11-15 02:04:00,
2013-11-14 21:09:00,72.3,58.6,30.18,ESE,121,1.0,11.0,62,0.00,,,0.00,meteohub,2013-11-15 02:09:00,
2013-11-14 21:14:00,72.3,59.0,30.18,East,92,0.0,10.0,63,0.00,,,0.00,meteohub,2013-11-15 02:14:00,
2013-11-14 21:19:00,72.3,58.6,30.18,NE,51,0.0,9.0,62,0.00,,,0.00,meteohub,2013-11-15 02:19:00,
2013-11-14 21:25:00,72.1,58.8,30.18,East,89,0.0,9.0,63,0.00,,,0.00,meteohub,2013-11-15 02:25:00,
2013-11-14 21:29:00,72.1,58.8,30.18,NE,36,2.0,9.0,63,0.00,,,0.00,meteohub,2013-11-15 02:29:00,
2013-11-14 21:35:00,72.1,58.8,30.18,SSE,150,2.0,9.0,63,0.00,,,0.00,meteohub,2013-11-15 02:35:00,
2013-11-14 21:40:00,72.1,59.4,30.18,SE,127,2.0,7.0,64,0.00,,,0.00,meteohub,2013-11-15 02:40:00,
2013-11-14 21:45:00,72.1,59.7,30.18,SE,136,5.0,8.0,65,0.00,,,0.00,meteohub,2013-11-15 02:45:00,
2013-11-14 21:50:00,72.1,60.1,30.17,NE,43,0.0,10.0,66,0.00,,,0.00,meteohub,2013-11-15 02:50:00,
2013-11-14 21:55:00,72.1,60.1,30.18,NNE,24,2.0,10.0,66,0.00,,,0.00,meteohub,2013-11-15 02:55:00,
2013-11-14 22:00:00,72.1,60.1,30.18,ESE,113,2.0,10.0,66,0.00,,,0.00,meteohub,2013-11-15 03:00:00,
2013-11-14 22:05:00,72.1,60.1,30.17,NE,48,2.0,6.0,66,0.00,,,0.00,meteohub,2013-11-15 03:05:00,
2013-11-14 22:10:00,72.1,60.1,30.17,SSE,157,0.0,8.0,66,0.00,,,0.00,meteohub,2013-11-15 03:10:00,
2013-11-14 22:15:00,72.1,60.6,30.17,ENE,57,0.0,8.0,67,0.00,,,0.00,meteohub,2013-11-15 03:15:00,
2013-11-14 22:20:00,72.3,60.3,30.17,NNE,16,3.0,8.0,66,0.00,,,0.00,meteohub,2013-11-15 03:20:00,
2013-11-14 22:25:00,72.3,60.8,30.17,East,86,1.0,10.0,67,0.00,,,0.00,meteohub,2013-11-15 03:25:00,
2013-11-14 22:30:00,72.5,60.4,30.17,ESE,119,2.0,10.0,66,0.00,,,0.00,meteohub,2013-11-15 03:30:00,
2013-11-14 22:35:00,72.7,60.6,30.17,East,97,1.0,10.0,66,0.00,,,0.00,meteohub,2013-11-15 03:35:00,
2013-11-14 22:40:00,72.7,61.2,30.16,ESE,123,2.0,10.0,67,0.00,,,0.00,meteohub,2013-11-15 03:40:00,
2013-11-14 22:45:00,72.7,61.2,30.16,ESE,105,2.0,9.0,67,0.00,,,0.00,meteohub,2013-11-15 03:45:00,
2013-11-14 22:50:00,72.7,61.2,30.16,East,87,0.0,9.0,67,0.00,,,0.00,meteohub,2013-11-15 03:50:00,
2013-11-14 22:55:00,72.7,61.5,30.16,East,100,2.0,11.0,68,0.00,,,0.00,meteohub,2013-11-15 03:55:00,
2013-11-14 23:00:00,72.7,61.9,30.16,NNE,23,2.0,11.0,69,0.00,,,0.00,meteohub,2013-11-15 04:00:00,
2013-11-14 23:05:00,72.7,61.5,30.15,NE,42,7.0,11.0,68,0.00,,,0.00,meteohub,2013-11-15 04:05:00,
2013-11-14 23:10:00,72.7,61.5,30.15,NE,49,1.0,9.0,68,0.00,,,0.00,meteohub,2013-11-15 04:10:00,
2013-11-14 23:15:00,72.7,61.5,30.15,NE,44,4.0,10.0,68,0.00,,,0.00,meteohub,2013-11-15 04:15:00,
2013-11-14 23:20:00,72.7,61.5,30.15,ENE,68,1.0,10.0,68,0.00,,,0.00,meteohub,2013-11-15 04:20:00,
2013-11-14 23:25:00,72.7,61.9,30.15,East,92,0.0,10.0,69,0.00,,,0.00,meteohub,2013-11-15 04:25:00,
2013-11-14 23:30:00,72.5,61.7,30.15,ESE,105,3.0,9.0,69,0.00,,,0.00,meteohub,2013-11-15 04:30:00,
2013-11-14 23:35:00,72.5,61.7,30.15,South,172,0.0,11.0,69,0.00,,,0.00,meteohub,2013-11-15 04:35:00,
2013-11-14 23:40:00,72.5,62.2,30.15,NNE,29,1.0,11.0,70,0.00,,,0.00,meteohub,2013-11-15 04:40:00,
2013-11-14 23:45:00,72.5,61.7,30.14,East,101,5.0,11.0,69,0.00,,,0.00,meteohub,2013-11-15 04:45:00,
2013-11-14 23:50:00,72.7,62.2,30.14,ESE,113,2.0,9.0,70,0.00,,,0.00,meteohub,2013-11-15 04:50:00,
2013-11-14 23:55:00,72.7,61.9,30.14,East,94,2.0,9.0,69,0.00,,,0.00,meteohub,2013-11-15 04:55:00,